• In Österreich
  • Länderverzeichnis
  • Für 7 Tage
  • Wassertemperatur
  • Satellitenkarten
  • Wetterkarte
  • News
  • Widgets
  • user-avatar
    Anmelden

    Stündliche Wetter Sulęcin

    Heute, 22 April, Sonntag

    Zeit Temperatur Niederschläge Wind Luftdruck Luftfeuchtigkeit
    00:00 +11°C° 0 mm 1 m/S 755 mmHg 68%
    01:00 +10°C° 0 mm 1 m/S 755 mmHg 68%
    02:00 +10°C° 0 mm 1 m/S 755 mmHg 68%
    03:00 +9°C° 0 mm 1 m/S 755 mmHg 69%
    04:00 +9°C° 0 mm 1 m/S 755 mmHg 70%
    05:00 +10°C° 0 mm 1 m/S 755 mmHg 66%
    06:00 +11°C° 0 mm 1 m/S 755 mmHg 63%
    07:00 +13°C° 0 mm 1 m/S 755 mmHg 57%
    08:00 +15°C° 0 mm 1 m/S 754 mmHg 53%
    09:00 +18°C° 0 mm 1 m/S 754 mmHg 49%
    10:00 +20°C° 0 mm 1 m/S 754 mmHg 45%
    11:00 +21°C° 0 mm 1 m/S 754 mmHg 42%
    12:00 +22°C° 0 mm 1 m/S 753 mmHg 38%
    13:00 +24°C° 0 mm 1 m/S 753 mmHg 35%
    14:00 +24°C° 0 mm 1 m/S 753 mmHg 34%
    15:00 +24°C° 0 mm 1 m/S 752 mmHg 34%
    16:00 +24°C° 0 mm 1 m/S 752 mmHg 34%
    17:00 +22°C° 0 mm 1 m/S 751 mmHg 39%
    18:00 +20°C° 0 mm 1 m/S 751 mmHg 45%
    19:00 +18°C° 0 mm 2 m/S 751 mmHg 51%
    20:00 +17°C° 0 mm 2 m/S 751 mmHg 53%
    21:00 +16°C° 0 mm 3 m/S 751 mmHg 55%
    22:00 +14°C° 0 mm 3 m/S 750 mmHg 58%
    23:00 +14°C° 0,1 mm 3 m/S 750 mmHg 61%

    Morgen, 23 April, Montag

    Zeit Temperatur Niederschläge Wind Luftdruck Luftfeuchtigkeit
    00:00 +13°C° 0,1 mm 3 m/S 750 mmHg 64%
    01:00 +13°C° 0,1 mm 3 m/S 750 mmHg 68%
    02:00 +13°C° 0,7 mm 3 m/S 749 mmHg 73%
    03:00 +13°C° 0,7 mm 3 m/S 749 mmHg 78%
    04:00 +12°C° 0,7 mm 3 m/S 748 mmHg 83%
    05:00 +13°C° 0,2 mm 3 m/S 748 mmHg 84%
    06:00 +14°C° 0,2 mm 3 m/S 748 mmHg 84%
    07:00 +15°C° 0,2 mm 4 m/S 748 mmHg 84%
    08:00 +18°C° 0,1 mm 4 m/S 748 mmHg 78%
    09:00 +20°C° 0,1 mm 5 m/S 748 mmHg 71%
    10:00 +22°C° 0,1 mm 5 m/S 748 mmHg 65%
    11:00 +22°C° 0,8 mm 5 m/S 748 mmHg 64%
    12:00 +22°C° 0,8 mm 6 m/S 748 mmHg 63%
    13:00 +22°C° 0,8 mm 6 m/S 749 mmHg 62%
    14:00 +21°C° 0,4 mm 6 m/S 749 mmHg 61%
    15:00 +21°C° 0,4 mm 6 m/S 749 mmHg 60%
    16:00 +20°C° 0,4 mm 6 m/S 749 mmHg 59%
    17:00 +19°C° 0 mm 5 m/S 750 mmHg 62%
    18:00 +17°C° 0 mm 4 m/S 750 mmHg 65%
    19:00 +16°C° 0 mm 3 m/S 750 mmHg 69%
    20:00 +14°C° 0 mm 3 m/S 751 mmHg 72%
    21:00 +12°C° 0 mm 3 m/S 751 mmHg 75%
    22:00 +11°C° 0 mm 3 m/S 752 mmHg 78%
    23:00 +11°C° 0 mm 3 m/S 752 mmHg 81%

    übermorgen, 24 April, Dienstag

    Zeit Temperatur Niederschläge Wind Luftdruck Luftfeuchtigkeit
    00:00 +10°C° 0 mm 2 m/S 752 mmHg 83%
    01:00 +9°C° 0 mm 2 m/S 752 mmHg 86%
    02:00 +9°C° 0 mm 2 m/S 752 mmHg 86%
    03:00 +9°C° 0 mm 2 m/S 752 mmHg 85%
    04:00 +8°C° 0 mm 3 m/S 752 mmHg 85%
    05:00 +9°C° 0 mm 3 m/S 753 mmHg 81%
    06:00 +10°C° 0 mm 4 m/S 753 mmHg 77%
    07:00 +10°C° 0 mm 4 m/S 753 mmHg 73%
    08:00 +12°C° 0 mm 4 m/S 753 mmHg 67%
    09:00 +13°C° 0 mm 5 m/S 753 mmHg 60%
    10:00 +15°C° 0 mm 5 m/S 753 mmHg 53%
    11:00 +16°C° 0 mm 5 m/S 752 mmHg 50%
    12:00 +17°C° 0 mm 5 m/S 752 mmHg 48%
    13:00 +19°C° 0 mm 6 m/S 751 mmHg 45%
    14:00 +19°C° 0 mm 6 m/S 751 mmHg 46%
    15:00 +19°C° 0 mm 6 m/S 751 mmHg 48%
    16:00 +20°C° 0 mm 5 m/S 750 mmHg 50%
    17:00 +17°C° 0,1 mm 5 m/S 750 mmHg 57%
    18:00 +17°C° 0,1 mm 4 m/S 750 mmHg 65%
    19:00 +14°C° 0,1 mm 3 m/S 750 mmHg 73%
    20:00 +14°C° 0,1 mm 3 m/S 750 mmHg 77%
    21:00 +13°C° 0,1 mm 3 m/S 750 mmHg 80%
    22:00 +13°C° 0,1 mm 3 m/S 750 mmHg 84%
    23:00 +12°C° 0 mm 3 m/S 750 mmHg 85%

    25 April, Mittwoch

    Zeit Temperatur Niederschläge Wind Luftdruck Luftfeuchtigkeit
    00:00 +12°C° 0 mm 3 m/S 750 mmHg 87%
    01:00 +12°C° 0 mm 3 m/S 750 mmHg 88%
    02:00 +12°C° 0,1 mm 3 m/S 750 mmHg 89%
    03:00 +12°C° 0,1 mm 3 m/S 750 mmHg 90%
    04:00 +12°C° 0,1 mm 3 m/S 750 mmHg 91%
    05:00 +11°C° 0,2 mm 3 m/S 750 mmHg 89%
    06:00 +11°C° 0,2 mm 3 m/S 750 mmHg 88%
    07:00 +11°C° 0,2 mm 3 m/S 750 mmHg 87%
    08:00 +10°C° 0,6 mm 3 m/S 750 mmHg 87%
    09:00 +10°C° 0,6 mm 2 m/S 750 mmHg 86%
    10:00 +9°C° 0,6 mm 2 m/S 750 mmHg 86%
    11:00 +9°C° 0,9 mm 2 m/S 750 mmHg 86%
    12:00 +9°C° 0,9 mm 2 m/S 750 mmHg 86%
    13:00 +8°C° 0,9 mm 2 m/S 750 mmHg 86%
    14:00 +8°C° 0,7 mm 2 m/S 750 mmHg 86%
    15:00 +9°C° 0,7 mm 1 m/S 750 mmHg 87%
    16:00 +9°C° 0,7 mm 1 m/S 750 mmHg 87%
    17:00 +9°C° 0,1 mm 1 m/S 750 mmHg 88%
    18:00 +9°C° 0,1 mm 1 m/S 750 mmHg 90%
    19:00 +9°C° 0,1 mm 1 m/S 750 mmHg 91%
    20:00 +8°C° 0 mm 1 m/S 750 mmHg 93%
    21:00 +7°C° 0 mm 2 m/S 750 mmHg 95%
    22:00 +6°C° 0 mm 2 m/S 750 mmHg 96%
    23:00 +6°C° 0 mm 2 m/S 750 mmHg 97%

    26 April, Donnerstag

    Zeit Temperatur Niederschläge Wind Luftdruck Luftfeuchtigkeit
    00:00 +6°C° 0 mm 2 m/S 750 mmHg 97%
    01:00 +7°C° 0 mm 3 m/S 750 mmHg 97%
    02:00 +7°C° 0 mm 3 m/S 750 mmHg 97%
    03:00 +7°C° 0 mm 3 m/S 750 mmHg 96%
    04:00 +7°C° 0 mm 3 m/S 749 mmHg 96%
    05:00 +8°C° 0 mm 3 m/S 750 mmHg 94%
    06:00 +8°C° 0 mm 3 m/S 750 mmHg 91%
    07:00 +9°C° 0 mm 3 m/S 750 mmHg 88%
    08:00 +10°C° 0 mm 3 m/S 750 mmHg 79%
    09:00 +12°C° 0 mm 4 m/S 750 mmHg 69%
    10:00 +14°C° 0 mm 4 m/S 750 mmHg 60%
    11:00 +14°C° 0,4 mm 5 m/S 749 mmHg 60%
    12:00 +14°C° 0,4 mm 6 m/S 749 mmHg 60%
    13:00 +14°C° 0,4 mm 7 m/S 749 mmHg 59%
    14:00 +14°C° 0,2 mm 7 m/S 749 mmHg 57%
    15:00 +12°C° 0,2 mm 7 m/S 749 mmHg 55%
    16:00 +12°C° 0,2 mm 7 m/S 749 mmHg 53%
    17:00 +11°C° 0 mm 6 m/S 750 mmHg 58%
    18:00 +11°C° 0 mm 4 m/S 750 mmHg 63%
    19:00 +10°C° 0 mm 3 m/S 751 mmHg 67%
    20:00 +9°C° 0 mm 3 m/S 751 mmHg 71%
    21:00 +8°C° 0 mm 3 m/S 751 mmHg 75%
    22:00 +7°C° 0 mm 3 m/S 752 mmHg 79%
    23:00 +7°C° 0 mm 3 m/S 752 mmHg 81%

    27 April, Freitag

    Zeit Temperatur Niederschläge Wind Luftdruck Luftfeuchtigkeit
    00:00 +5°C° 0 mm 3 m/S 752 mmHg 83%
    01:00 +5°C° 0 mm 3 m/S 752 mmHg 85%
    02:00 +4°C° 0 mm 3 m/S 752 mmHg 87%
    03:00 +4°C° 0 mm 3 m/S 752 mmHg 88%
    04:00 +4°C° 0 mm 3 m/S 752 mmHg 89%
    05:00 +5°C° 0 mm 3 m/S 752 mmHg 84%
    06:00 +6°C° 0 mm 4 m/S 752 mmHg 78%
    07:00 +7°C° 0 mm 4 m/S 752 mmHg 73%
    08:00 +8°C° 0 mm 4 m/S 752 mmHg 65%
    09:00 +10°C° 0 mm 5 m/S 752 mmHg 58%
    10:00 +12°C° 0 mm 5 m/S 753 mmHg 51%
    11:00 +13°C° 0 mm 5 m/S 752 mmHg 48%
    12:00 +14°C° 0 mm 5 m/S 752 mmHg 45%
    13:00 +15°C° 0 mm 5 m/S 752 mmHg 42%
    14:00 +15°C° 0 mm 5 m/S 752 mmHg 42%
    15:00 +15°C° 0 mm 4 m/S 752 mmHg 43%
    16:00 +15°C° 0 mm 4 m/S 752 mmHg 44%
    17:00 +13°C° 0 mm 3 m/S 752 mmHg 50%
    18:00 +13°C° 0 mm 2 m/S 752 mmHg 56%
    19:00 +12°C° 0 mm 1 m/S 752 mmHg 62%
    20:00 +11°C° 0 mm 1 m/S 752 mmHg 65%
    21:00 +8°C° 0 mm 0 m/S 752 mmHg 68%
    22:00 +7°C° 0 mm 0 m/S 753 mmHg 72%
    23:00 +7°C° 0 mm 0 m/S 753 mmHg 73%
    Mehr zeigen